EW8029 Weather Reports


time (UTC)temp
F
wind
direction
speed
knots
gust
knots
rain 1hr
in
rain 24hr
in
rain mn
in
humidity
%
barometer
mb
20260509173603 85 266 4.3 8.7 0.00 0.01 0.01 53 1007.9
20260509173024 85 266 2.6 7.0 0.00 0.02 0.01 55 1007.9
20260509172403 85 266 2.6 5.2 0.00 0.02 0.01 55 1007.8
20260509171803 85 266 3.5 7.0 0.00 0.02 0.01 55 1007.8
20260509171245 84 266 3.5 7.8 0.00 0.02 0.01 54 1007.8
20260509170645 84 267 3.5 7.8 0.00 0.02 0.01 57 1007.9
20260509170024 84 267 2.6 7.0 0.00 0.02 0.01 55 1007.9
20260509165403 84 266 3.5 7.8 0.00 0.02 0.01 58 1008.0
20260509164824 83 266 3.5 7.8 0.00 0.02 0.01 56 1007.9
20260509164245 83 266 3.5 7.0 0.00 0.02 0.01 60 1008.0
20260509163603 82 266 4.3 7.8 0.00 0.02 0.01 58 1008.1
20260509163003 82 265 4.3 7.8 0.00 0.02 0.01 61 1008.3
20260509162403 82 265 3.5 7.8 0.00 0.02 0.01 61 1008.3
20260509161803 82 264 3.5 7.0 0.00 0.02 0.01 62 1008.3
20260509161224 82 264 3.5 7.8 0.00 0.02 0.01 63 1008.2
20260509160624 82 262 3.5 7.8 0.00 0.02 0.01 64 1008.2
20260509160003 82 262 2.6 7.8 0.00 0.02 0.01 67 1008.2
20260509155424 81 262 2.6 5.2 0.00 0.02 0.01 66 1008.2
20260509154803 80 262 3.5 7.0 0.00 0.02 0.01 68 1008.2
20260509154224 80 262 4.3 7.8 0.00 0.02 0.01 68 1008.1
20260509153603 80 260 4.3 8.7 0.00 0.02 0.01 68 1008.2
20260509153003 80 259 4.3 8.7 0.00 0.02 0.01 68 1008.2
20260509152424 79 257 5.2 8.7 0.00 0.02 0.01 68 1008.2
20260509151803 79 254 4.3 8.7 0.00 0.02 0.01 67 1008.2
20260509151224 79 253 3.5 7.0 0.00 0.02 0.01 66 1008.2
20260509150603 79 252 2.6 5.2 0.00 0.02 0.01 67 1008.1
20260509150045 79 252 2.6 5.2 0.00 0.02 0.01 68 1008.0
20260509145424 78 252 1.7 7.0 0.00 0.02 0.01 71 1008.0
20260509144824 78 252 0.9 3.5 0.00 0.02 0.01 75 1008.0
20260509144258 77 252 1.7 4.3 0.00 0.02 0.01 75 1008.1
20260509143645 77 252 1.7 5.2 0.00 0.02 0.01 76 1008.0
20260509143024 77 252 1.7 5.2 0.00 0.02 0.01 78 1008.0
20260509142424 76 251 1.7 5.2 0.00 0.02 0.01 81 1008.0
20260509141824 75 251 2.6 7.0 0.00 0.02 0.01 83 1008.0
20260509141203 75 250 2.6 7.0 0.00 0.02 0.01 84 1008.0
20260509140603 74 250 3.5 7.0 0.00 0.02 0.01 85 1008.1
20260509140003 74 245 4.3 8.7 0.00 0.02 0.01 86 1008.1
20260509135403 73 231 3.5 8.7 0.00 0.02 0.01 86 1008.0
20260509134803 73 219 2.6 7.0 0.00 0.02 0.01 84 1007.9
20260509134203 73 218 2.6 6.1 0.00 0.02 0.01 81 1007.8
20260509133603 72 218 1.7 6.1 0.00 0.02 0.01 79 1007.8
20260509133024 72 218 1.7 4.3 0.00 0.02 0.01 78 1007.8
20260509132424 71 218 0.9 3.5 0.00 0.02 0.01 78 1007.7
20260509131803 71 218 0.9 3.5 0.00 0.02 0.01 78 1007.7
20260509131245 71 218 1.7 3.5 0.00 0.02 0.01 79 1007.8
20260509130603 70 218 1.7 4.3 0.00 0.02 0.01 79 1007.6
20260509130024 70 218 2.6 4.3 0.00 0.02 0.01 79 1007.7
20260509125424 70 218 1.7 4.3 0.00 0.02 0.01 79 1007.5
20260509124906 70 218 0.9 2.6 0.00 0.02 0.01 79 1007.7
20260509124203 70 218 0.9 2.6 0.00 0.02 0.01 80 1007.6
20260509123603 70 218 1.7 4.3 0.00 0.02 0.01 80 1007.3
20260509123003 70 218 1.7 3.5 0.00 0.02 0.01 80 1007.0
20260509122403 70 218 1.7 4.3 0.00 0.02 0.01 80 1006.9
20260509121803 70 218 0.9 4.3 0.00 0.02 0.01 80 1006.8
20260509121224 70 218 1.7 3.5 0.00 0.02 0.01 79 1006.3
20260509120603 70 218 1.7 4.3 0.00 0.02 0.01 80 1006.5
20260509120106 70 218 2.6 7.8 0.00 0.02 0.01 80 1006.5
20260509115424 70 214 5.2 12.2 0.00 0.02 0.01 79 1006.8
20260509114803 70 211 7.0 12.2 0.00 0.02 0.01 79 1006.4
20260509114203 70 214 7.0 13.0 0.01 0.02 0.01 79 1006.2
20260509113624 70 216 7.0 13.0 0.01 0.02 0.01 79 1006.3
20260509113024 70 216 7.0 14.8 0.01 0.02 0.01 80 1006.1
20260509112403 70 219 8.7 14.8 0.01 0.02 0.01 80 1006.1
20260509111906 70 219 8.7 17.4 0.01 0.02 0.01 80 1006.0
20260509111224 70 210 10.4 20.9 0.01 0.02 0.01 80 1005.9
20260509110603 70 202 8.7 23.5 0.01 0.02 0.01 80 1005.5
20260509110024 70 199 7.8 19.1 0.01 0.02 0.01 80 1005.4
20260509105403 70 199 6.1 16.5 0.01 0.02 0.01 81 1005.6
20260509104824 70 202 6.1 13.9 0.01 0.02 0.01 81 1006.0
20260509104245 70 199 7.0 13.9 0.00 0.01 0.01 82 1005.9
20260509103603 70 198 6.1 12.2 0.00 0.01 0.00 82 1005.7
20260509103024 70 197 7.0 15.6 0.00 0.01 0.00 83 1006.0
20260509102403 70 191 7.0 15.6 0.00 0.01 0.00 83 1006.5
20260509101803 70 186 6.1 12.2 0.00 0.01 0.00 83 1006.5
20260509101224 70 181 6.1 12.2 0.00 0.01 0.00 84 1006.6
20260509100624 70 175 7.0 12.2 0.00 0.01 0.00 84 1006.5
20260509100004 70 167 5.2 12.2 0.00 0.01 0.00 84 1006.7
20260509095403 70 164 3.5 7.8 0.00 0.01 0.00 84 1006.8
20260509094803 70 164 3.5 7.8 0.00 0.01 0.00 84 1007.0
20260509094224 70 164 3.5 8.7 0.00 0.01 0.00 85 1007.1
20260509093603 70 164 4.3 9.6 0.00 0.01 0.00 85 1007.1
20260509093045 70 164 1.7 7.8 0.00 0.01 0.00 86 1007.2
20260509092424 71 164 0.0 2.6 0.00 0.01 0.00 85 1007.5
20260509091803 71 164 0.9 4.3 0.00 0.01 0.00 85 1007.7
20260509091203 71 164 2.6 4.3 0.00 0.01 0.00 85 1007.5
20260509090603 72 164 2.6 4.3 0.00 0.01 0.00 85 1007.7
20260509090024 72 164 2.6 4.3 0.00 0.01 0.00 85 1007.8
20260509085403 72 164 2.6 7.0 0.00 0.01 0.00 85 1007.9
20260509084824 72 164 3.5 7.8 0.00 0.01 0.00 84 1008.1
20260509084203 71 164 4.3 7.8 0.00 0.01 0.00 84 1008.2
20260509083624 71 164 2.6 7.8 0.00 0.01 0.00 85 1008.3
20260509083024 71 164 2.6 4.3 0.00 0.01 0.00 85 1008.6
20260509082424 71 164 1.7 4.3 0.00 0.01 0.00 85 1008.4
20260509081803 71 0 0.0 0.0 0.00 0.01 0.00 85 1008.6
20260509081203 71 164 0.0 0.9 0.00 0.01 0.00 85 1008.8
20260509080603 71 164 0.0 0.9 0.00 0.01 0.00 85 1008.7
20260509080003 71 164 0.9 1.7 0.00 0.01 0.00 85 1008.7
20260509075403 70 164 0.9 1.7 0.00 0.01 0.00 85 1008.8
20260509074906 70 164 0.9 1.7 0.00 0.01 0.00 85 1008.8
20260509074203 70 164 0.9 2.6 0.00 0.01 0.00 85 1008.9
20260509073603 70 164 0.0 0.9 0.00 0.01 0.00 85 1008.8
20260509073024 70 164 0.9 1.7 0.00 0.01 0.00 86 1008.8
20260509072403 70 164 0.9 1.7 0.00 0.01 0.00 86 1008.8
20260509071803 70 0 0.0 0.0 0.00 0.01 0.00 86 1008.7
20260509071224 70 164 0.9 2.6 0.00 0.01 0.00 86 1008.7
20260509070645 70 164 0.9 2.6 0.00 0.01 0.00 86 1008.5
20260509070003 70 164 0.0 1.7 0.00 0.01 0.00 86 1008.2
20260509065424 70 164 0.0 1.7 0.00 0.01 0.00 86 1008.2
20260509064803 70 164 0.9 1.7 0.00 0.01 0.00 86 1007.9
20260509064224 70 164 0.9 2.6 0.00 0.01 0.00 86 1007.9
20260509063603 70 164 0.0 2.6 0.00 0.01 0.00 86 1007.9
20260509063003 70 164 0.9 1.7 0.00 0.01 0.00 86 1007.7
20260509062403 70 164 1.7 2.6 0.00 0.01 0.00 86 1007.6
20260509061803 70 164 2.6 4.3 0.00 0.01 0.00 86 1007.7
20260509061224 70 164 2.6 4.3 0.00 0.01 0.00 86 1008.0
20260509060624 70 164 2.6 4.3 0.00 0.01 0.00 87 1008.1
20260509060045 70 164 2.6 6.1 0.00 0.01 0.00 87 1008.0
20260509055424 70 164 2.6 6.1 0.00 0.01 0.00 87 1007.9
20260509054824 70 164 2.6 4.3 0.00 0.01 0.00 87 1008.0
20260509054203 70 164 0.9 4.3 0.00 0.01 0.00 87 1008.0
20260509053624 71 0 0.0 0.0 0.00 0.01 0.00 87 1007.8
20260509053045 71 0 0.0 0.0 0.00 0.01 0.00 87 1007.8
20260509052424 71 164 0.0 1.7 0.00 0.01 0.00 87 1007.7
20260509051906 71 164 0.0 1.7 0.00 0.01 0.00 87 1007.8
20260509051203 71 164 0.9 2.6 0.00 0.01 0.00 87 1007.7
20260509050603 71 164 0.9 2.6 0.00 0.01 0.00 87 1007.6
20260509050025 71 164 0.9 2.6 0.00 0.01 0.00 87 1007.7
20260509045424 71 164 1.7 3.5 0.00 0.01 0.01 86 1007.6
20260509044824 72 164 0.9 2.6 0.00 0.01 0.01 87 1007.6
20260509044203 72 0 0.0 0.0 0.00 0.01 0.01 87 1007.7
20260509043603 72 164 0.0 0.9 0.00 0.01 0.01 86 1007.8
20260509042424 72 0 0.0 0.0 0.00 0.01 0.01 86 1007.9
20260509041824 72 164 0.0 1.7 0.00 0.01 0.01 86 1007.9
20260509041203 72 164 0.0 1.7 0.00 0.01 0.01 86 1008.0
20260509040603 72 164 0.0 0.9 0.00 0.01 0.01 86 1007.9
20260509040004 72 164 0.0 0.9 0.00 0.01 0.01 86 1007.9
20260509035445 72 164 0.9 1.7 0.00 0.01 0.01 86 1007.8
20260509034803 72 164 0.9 2.6 0.00 0.01 0.01 86 1007.6
20260509034245 72 164 1.7 2.6 0.00 0.01 0.01 86 1007.5
20260509033603 72 164 0.0 2.6 0.00 0.01 0.01 86 1007.4
20260509033003 73 0 0.0 0.0 0.00 0.01 0.01 86 1007.3
20260509032424 73 0 0.0 0.0 0.00 0.01 0.01 85 1007.2
20260509031824 73 0 0.0 0.0 0.00 0.01 0.01 85 1007.1
20260509031203 73 0 0.0 0.0 0.00 0.01 0.01 85 1006.9
20260509030624 73 0 0.0 0.0 0.00 0.01 0.01 85 1006.9
20260509030003 73 0 0.0 0.0 0.00 0.01 0.01 85 1006.9
20260509025403 72 0 0.0 0.0 0.00 0.01 0.01 85 1006.9
20260509024803 73 0 0.0 0.0 0.00 0.01 0.01 85 1006.7
20260509024203 72 0 0.0 0.0 0.00 0.01 0.01 85 1006.7
20260509023624 72 0 0.0 0.0 0.00 0.01 0.01 86 1006.6
20260509023045 72 0 0.0 0.0 0.00 0.01 0.01 85 1006.4
20260509022424 72 0 0.0 0.0 0.00 0.01 0.01 85 1006.3
20260509021803 72 164 0.0 0.9 0.00 0.01 0.01 85 1006.4
20260509021203 72 164 0.0 1.7 0.00 0.01 0.01 85 1006.2
20260509020624 72 164 0.9 3.5 0.00 0.01 0.01 85 1006.1
20260509020045 73 164 0.9 6.1 0.00 0.01 0.01 85 1006.0
20260509015445 73 164 1.7 6.1 0.00 0.01 0.01 85 1005.9
20260509014845 73 164 1.7 6.1 0.00 0.01 0.01 85 1005.8
20260509014203 73 164 2.6 7.0 0.00 0.01 0.01 85 1005.8
20260509013603 73 164 3.5 9.6 0.00 0.01 0.01 84 1005.8
20260509013045 73 164 3.5 9.6 0.00 0.01 0.01 84 1005.8
20260509012403 73 164 2.6 7.8 0.00 0.01 0.01 84 1005.8
20260509011803 73 164 2.6 7.8 0.00 0.01 0.01 84 1005.9
20260509011224 73 164 2.6 6.1 0.00 0.01 0.01 84 1005.9
20260509010645 73 164 2.6 7.0 0.00 0.01 0.01 84 1005.9
20260509010024 73 164 2.6 8.7 0.00 0.01 0.01 83 1005.9
20260509005506 74 164 3.5 9.6 0.00 0.01 0.01 83 1005.9
20260509004824 74 164 4.3 11.3 0.00 0.01 0.01 83 1005.9
20260509004203 74 163 4.3 9.6 0.00 0.01 0.01 83 1005.8
20260509003603 74 163 5.2 11.3 0.00 0.01 0.01 82 1005.8
20260509003003 74 163 6.1 13.9 0.00 0.01 0.01 82 1005.8
20260509002403 74 162 6.1 13.0 0.00 0.01 0.01 82 1005.8
20260509001824 74 161 6.1 13.0 0.00 0.01 0.01 81 1005.8
20260509001224 74 160 6.1 11.3 0.00 0.01 0.01 81 1005.7
20260509000624 74 159 7.0 13.0 0.00 0.01 0.01 82 1005.7
20260509000003 74 159 6.1 13.0 0.00 0.01 0.01 81 1005.9
20260508235403 75 158 6.1 10.4 0.00 0.01 0.01 81 1006.0
20260508234803 75 156 6.1 12.2 0.00 0.01 0.01 81 1006.0
20260508234224 75 154 6.1 12.2 0.00 0.01 0.01 80 1006.0
20260508233706 75 154 6.1 11.3 0.00 0.01 0.01 80 1005.9
20260508233003 75 153 6.1 13.9 0.00 0.01 0.01 80 1005.9
20260508232506 75 151 6.1 13.9 0.00 0.01 0.01 79 1005.9
20260508231803 75 145 7.0 14.8 0.00 0.01 0.01 79 1005.8
20260508231203 75 134 6.1 13.9 0.00 0.01 0.01 78 1005.6
20260508230624 76 133 5.2 11.3 0.00 0.01 0.01 78 1005.6
20260508230024 76 136 5.2 10.4 0.00 0.01 0.01 79 1005.7
20260508225445 75 140 6.1 12.2 0.00 0.01 0.01 79 1005.8
20260508224803 75 138 6.1 12.2 0.00 0.01 0.01 79 1005.7
20260508224224 75 137 6.1 13.0 0.00 0.01 0.01 78 1005.8
20260508223603 74 133 7.0 13.0 0.00 0.01 0.01 78 1006.0
20260508223045 75 133 6.1 11.3 0.00 0.01 0.01 78 1006.2
20260508222403 75 134 5.2 11.3 0.00 0.01 0.01 78 1006.3
20260508221803 74 134 5.2 9.6 0.00 0.01 0.01 78 1006.5
20260508221203 74 131 5.2 12.2 0.00 0.01 0.01 78 1006.6
20260508220645 74 119 5.2 12.2 0.00 0.01 0.01 78 1006.7
20260508220024 74 109 5.2 10.4 0.00 0.01 0.01 78 1006.8
20260508215445 73 107 5.2 9.6 0.00 0.01 0.01 79 1006.8
20260508214824 73 106 4.3 8.7 0.00 0.01 0.01 79 1006.9
20260508214224 73 106 4.3 7.8 0.00 0.01 0.01 79 1007.0
20260508213624 73 106 3.5 7.8 0.00 0.01 0.01 79 1007.2
20260508213024 73 106 3.5 7.0 0.00 0.01 0.01 79 1007.2
20260508212424 73 106 3.5 6.1 0.00 0.01 0.01 79 1007.2
20260508211824 73 106 2.6 5.2 0.00 0.01 0.01 79 1007.4
20260508211203 73 106 1.7 4.3 0.00 0.01 0.01 79 1007.5
20260508210624 72 106 2.6 7.0 0.00 0.01 0.01 80 1007.5
20260508210045 72 106 3.5 7.0 0.00 0.01 0.01 80 1007.5
20260508205424 72 106 2.6 6.1 0.00 0.01 0.01 79 1007.6
20260508204824 72 106 1.7 6.1 0.00 0.01 0.01 80 1007.7
20260508204203 72 106 0.9 4.3 0.00 0.01 0.01 80 1007.9
20260508203624 72 106 1.7 4.3 0.00 0.01 0.01 80 1008.1
20260508203003 71 106 2.6 4.3 0.00 0.01 0.01 80 1008.2
20260508202445 71 106 1.7 5.2 0.00 0.01 0.01 80 1008.3
20260508201845 71 106 1.7 5.2 0.00 0.01 0.01 80 1008.3
20260508201203 71 106 3.5 7.0 0.00 0.01 0.01 80 1008.3
20260508200603 71 106 3.5 7.0 0.00 0.01 0.01 80 1008.3
20260508200003 71 106 3.5 7.0 0.00 0.01 0.01 80 1008.3
20260508195424 71 106 4.3 9.6 0.00 0.01 0.01 80 1008.3
20260508194803 71 105 4.3 9.6 0.00 0.01 0.01 81 1008.3
20260508194224 70 104 3.5 7.0 0.00 0.01 0.01 81 1008.2
20260508193603 70 104 4.3 8.7 0.00 0.01 0.01 81 1008.3
20260508193003 70 104 3.5 7.8 0.00 0.01 0.01 81 1008.4
20260508192403 69 103 3.5 7.0 0.00 0.01 0.01 82 1008.5
20260508191824 69 102 3.5 7.8 0.00 0.01 0.01 82 1008.6
20260508191203 69 102 4.3 7.8 0.00 0.01 0.01 82 1008.6
20260508190645 68 101 4.3 7.8 0.00 0.01 0.01 82 1008.7
20260508190045 68 101 2.6 5.2 0.00 0.01 0.01 82 1008.8
20260508185403 68 101 1.7 5.2 0.00 0.01 0.01 83 1009.0
20260508184803 67 101 2.6 5.2 0.00 0.01 0.01 83 1009.1
20260508184224 67 101 1.7 4.3 0.00 0.01 0.01 83 1009.1
20260508183603 67 101 0.9 3.5 0.00 0.01 0.01 84 1009.3
20260508183003 66 101 1.7 4.3 0.01 0.01 0.01 85 1009.5
20260508182424 66 101 1.7 4.3 0.01 0.01 0.01 85 1009.6
20260508181803 66 101 0.9 3.5 0.01 0.01 0.01 85 1009.8
20260508181203 65 101 1.7 4.3 0.01 0.01 0.01 84 1010.1
20260508180603 65 101 1.7 5.2 0.01 0.01 0.01 85 1010.2
20260508180003 65 101 2.6 5.2 0.01 0.01 0.01 85 1010.3
20260508175424 65 101 2.6 5.2 0.01 0.01 0.01 84 1010.1
20260508174824 65 101 2.6 6.1 0.01 0.01 0.01 84 1010.2
20260508174224 66 101 2.6 6.1 0.01 0.01 0.01 84 1010.0